Location: Treviso
(45.6669°N, 12.2430°E)
Time: 10:43:38
(UTC+02:00)

Envisat - Visible Passes

Search period start: 18 October 2019 00:00
Search period end: 27 October 2019 23:00
Orbit: 764 x 766 km, 98.1° (Epoch: 18 October)

Date Brightness Start Highest point End Pass type
(mag) Time Alt. Az. Time Alt. Az. Time Alt. Az.
18 Oct 3.0 19:05:33 10° SSE 19:10:37 82° ENE 19:15:44 10° NNW visible
18 Oct 6.1 20:47:53 10° WSW 20:50:17 13° W 20:52:42 10° WNW visible
19 Oct 5.1 20:08:46 10° SSW 20:13:06 28° W 20:17:29 10° NW visible
20 Oct 6.7 06:38:17 10° ENE 06:39:36 11° E 06:40:56 10° ESE visible
20 Oct 3.6 19:31:08 10° S 19:36:09 60° W 19:41:11 10° NNW visible
21 Oct 3.0 18:54:22 10° SSE 18:59:22 66° ENE 19:04:26 10° N visible
21 Oct 5.9 20:35:39 10° SW 20:38:52 17° W 20:42:07 10° NW visible
22 Oct 6.0 07:01:50 10° NE 07:05:27 19° E 07:09:02 10° SE visible
22 Oct 4.7 19:57:09 10° SSW 20:01:46 35° W 20:06:25 10° NNW visible
23 Oct 3.2 19:19:47 10° S 19:24:51 75° WSW 19:29:58 10° NNW visible
24 Oct 3.1 18:43:13 10° SSE 18:48:09 53° ENE 18:53:06 10° N visible
24 Oct 5.5 20:23:42 10° SW 20:27:29 21° W 20:31:18 10° NW visible
25 Oct 6.2 06:51:06 10° NE 06:54:03 15° E 06:57:00 10° SE visible
25 Oct 4.2 19:45:37 10° S 19:50:26 43° W 19:55:18 10° NNW visible
26 Oct 3.0 19:08:30 10° SSE 19:13:35 88° ENE 19:18:42 10° NNW visible
26 Oct 6.2 20:51:21 10° WSW 20:53:19 12° W 20:55:16 10° WNW visible
27 Oct 3.4 17:32:10 10° SE 17:36:56 43° ENE 17:41:43 10° N visible
27 Oct 5.2 19:11:55 10° SSW 19:16:07 26° W 19:20:21 10° NW visible
